When you browse on this site, cookies collect data to enhance your experience and personalize the content and advertising you see.
Visit our Privacy Policy to learn more. By continuing to use the site, you agree to this use of cookies and data.
  • In France
  • List of Countries
  • For 7 days
  • Water Temperature
  • Weather Map
  • Weather Widgets
  • user-avatar
    Login

    Hourly Weather Kandi

    Today, 19 September, Thursday

    Time Temperature Precipitation Wind Pressure Humidity
    00:00 +25°C° 0 mm 2 mps 737 mmHg 95%
    01:00 +25°C° 0.2 mm 2 mps 737 mmHg 96%
    02:00 +25°C° 0.2 mm 1 mps 736 mmHg 96%
    03:00 +25°C° 0.2 mm 1 mps 736 mmHg 96%
    04:00 +25°C° 0.3 mm 1 mps 736 mmHg 96%
    05:00 +24°C° 0.3 mm 1 mps 737 mmHg 97%
    06:00 +24°C° 0 mm 1 mps 737 mmHg 96%
    07:00 +26°C° 0 mm 1 mps 738 mmHg 92%
    08:00 +27°C° 0 mm 1 mps 738 mmHg 88%
    09:00 +28°C° 0 mm 1 mps 738 mmHg 84%
    10:00 +29°C° 0.1 mm 1 mps 738 mmHg 80%
    11:00 +28°C° 0.1 mm 0 mps 737 mmHg 76%
    12:00 +31°C° 0 mm 1 mps 738 mmHg 67%
    13:00 +31°C° 0.2 mm 1 mps 737 mmHg 68%
    14:00 +31°C° 0.2 mm 1 mps 736 mmHg 69%
    15:00 +31°C° 0.2 mm 1 mps 736 mmHg 69%
    16:00 +30°C° 0 mm 1 mps 736 mmHg 73%
    17:00 +29°C° 0 mm 1 mps 736 mmHg 77%
    18:00 +28°C° 0 mm 1 mps 736 mmHg 81%
    19:00 +27°C° 0 mm 1 mps 737 mmHg 83%
    20:00 +27°C° 0 mm 1 mps 737 mmHg 86%
    21:00 +26°C° 0 mm 1 mps 737 mmHg 89%
    22:00 +26°C° 0 mm 1 mps 737 mmHg 90%
    23:00 +25°C° 0 mm 1 mps 738 mmHg 91%

    Tomorrow, 20 September, Friday

    Time Temperature Precipitation Wind Pressure Humidity
    00:00 +25°C° 0 mm 1 mps 738 mmHg 91%
    01:00 +25°C° 0 mm 1 mps 737 mmHg 92%
    02:00 +25°C° 0 mm 1 mps 737 mmHg 92%
    03:00 +25°C° 0 mm 1 mps 737 mmHg 92%
    04:00 +25°C° 0 mm 2 mps 737 mmHg 92%
    05:00 +25°C° 0 mm 2 mps 737 mmHg 92%
    06:00 +25°C° 0 mm 2 mps 738 mmHg 91%
    07:00 +25°C° 0 mm 2 mps 738 mmHg 90%
    08:00 +26°C° 0 mm 2 mps 738 mmHg 88%
    09:00 +27°C° 0 mm 2 mps 738 mmHg 86%
    10:00 +27°C° 0 mm 2 mps 738 mmHg 84%
    11:00 +28°C° 0 mm 3 mps 738 mmHg 82%
    12:00 +28°C° 0 mm 3 mps 738 mmHg 79%
    13:00 +29°C° 0 mm 2 mps 737 mmHg 76%
    14:00 +30°C° 0 mm 1 mps 736 mmHg 72%
    15:00 +29°C° 0 mm 0 mps 736 mmHg 68%
    16:00 +28°C° 0 mm 0 mps 736 mmHg 73%
    17:00 +28°C° 0 mm 1 mps 736 mmHg 78%
    18:00 +27°C° 0 mm 1 mps 736 mmHg 83%
    19:00 +27°C° 0 mm 1 mps 737 mmHg 84%
    20:00 +26°C° 0 mm 1 mps 738 mmHg 86%
    21:00 +24°C° 0 mm 0 mps 738 mmHg 87%
    22:00 +26°C° 0 mm 1 mps 738 mmHg 88%
    23:00 +25°C° 0 mm 1 mps 738 mmHg 88%

    Day after tomorrow, 21 September, Saturday

    Time Temperature Precipitation Wind Pressure Humidity
    00:00 +25°C° 0 mm 1 mps 738 mmHg 89%
    01:00 +25°C° 0.1 mm 1 mps 737 mmHg 90%
    02:00 +25°C° 0.1 mm 2 mps 737 mmHg 90%
    03:00 +25°C° 0.1 mm 2 mps 737 mmHg 91%
    04:00 +25°C° 0 mm 2 mps 737 mmHg 91%
    05:00 +25°C° 0 mm 1 mps 737 mmHg 92%
    06:00 +25°C° 0 mm 1 mps 737 mmHg 92%
    07:00 +26°C° 0 mm 1 mps 738 mmHg 85%
    08:00 +28°C° 0 mm 1 mps 738 mmHg 78%
    09:00 +30°C° 0 mm 2 mps 738 mmHg 71%
    10:00 +31°C° 0 mm 1 mps 738 mmHg 66%
    11:00 +33°C° 0 mm 1 mps 738 mmHg 61%
    12:00 +34°C° 0 mm 1 mps 737 mmHg 56%
    13:00 +34°C° 0 mm 1 mps 737 mmHg 56%
    14:00 +33°C° 0 mm 0 mps 736 mmHg 55%
    15:00 +33°C° 0 mm 0 mps 736 mmHg 55%
    16:00 +31°C° 0 mm 0 mps 736 mmHg 60%
    17:00 +29°C° 0 mm 0 mps 736 mmHg 66%
    18:00 +28°C° 0 mm 0 mps 736 mmHg 71%
    19:00 +29°C° 0 mm 1 mps 736 mmHg 73%
    20:00 +29°C° 0 mm 1 mps 737 mmHg 75%
    21:00 +28°C° 0 mm 1 mps 737 mmHg 77%
    22:00 +28°C° 0 mm 1 mps 737 mmHg 78%
    23:00 +27°C° 0 mm 1 mps 737 mmHg 80%

    22 September, Sunday

    Time Temperature Precipitation Wind Pressure Humidity
    00:00 +27°C° 0 mm 2 mps 737 mmHg 82%
    01:00 +27°C° 0 mm 2 mps 736 mmHg 84%
    02:00 +26°C° 0 mm 2 mps 736 mmHg 86%
    03:00 +26°C° 0 mm 2 mps 736 mmHg 88%
    04:00 +26°C° 0 mm 2 mps 736 mmHg 89%
    05:00 +26°C° 0 mm 2 mps 736 mmHg 90%
    06:00 +25°C° 0 mm 2 mps 736 mmHg 92%
    07:00 +27°C° 0 mm 2 mps 737 mmHg 86%
    08:00 +29°C° 0 mm 2 mps 737 mmHg 79%
    09:00 +31°C° 0 mm 2 mps 737 mmHg 73%
    10:00 +34°C° 0 mm 2 mps 737 mmHg 67%
    11:00 +34°C° 0 mm 1 mps 737 mmHg 61%
    12:00 +36°C° 0 mm 1 mps 736 mmHg 55%
    13:00 +36°C° 0 mm 1 mps 736 mmHg 55%
    14:00 +36°C° 0 mm 1 mps 735 mmHg 55%
    15:00 +36°C° 0 mm 1 mps 735 mmHg 54%
    16:00 +34°C° 0.2 mm 1 mps 735 mmHg 63%
    17:00 +32°C° 0.2 mm 1 mps 735 mmHg 71%
    18:00 +30°C° 0.2 mm 2 mps 735 mmHg 80%
    19:00 +29°C° 0 mm 2 mps 735 mmHg 83%
    20:00 +28°C° 0 mm 2 mps 736 mmHg 86%
    21:00 +28°C° 0 mm 2 mps 736 mmHg 88%
    22:00 +27°C° 0.1 mm 2 mps 736 mmHg 90%
    23:00 +27°C° 0.1 mm 2 mps 736 mmHg 91%

    23 September, Monday

    Time Temperature Precipitation Wind Pressure Humidity
    00:00 +26°C° 0.1 mm 2 mps 736 mmHg 92%
    01:00 +26°C° 0.2 mm 2 mps 736 mmHg 93%
    02:00 +26°C° 0.2 mm 2 mps 736 mmHg 94%
    03:00 +26°C° 0.2 mm 1 mps 736 mmHg 95%
    04:00 +26°C° 0 mm 2 mps 736 mmHg 95%
    05:00 +26°C° 0 mm 2 mps 736 mmHg 95%
    06:00 +26°C° 0 mm 2 mps 737 mmHg 95%
    07:00 +27°C° 0 mm 2 mps 737 mmHg 90%
    08:00 +28°C° 0 mm 3 mps 737 mmHg 85%
    09:00 +30°C° 0 mm 3 mps 738 mmHg 80%
    10:00 +31°C° 0 mm 3 mps 737 mmHg 73%
    11:00 +34°C° 0 mm 2 mps 737 mmHg 66%
    12:00 +36°C° 0 mm 2 mps 736 mmHg 59%
    13:00 +36°C° 0 mm 2 mps 736 mmHg 58%
    14:00 +35°C° 0 mm 1 mps 735 mmHg 58%
    15:00 +35°C° 0 mm 1 mps 735 mmHg 58%
    16:00 +33°C° 0.8 mm 1 mps 735 mmHg 67%
    17:00 +31°C° 0.8 mm 1 mps 735 mmHg 77%
    18:00 +29°C° 0.8 mm 2 mps 735 mmHg 86%
    19:00 +28°C° 0.1 mm 2 mps 735 mmHg 87%
    20:00 +28°C° 0.1 mm 2 mps 736 mmHg 88%
    21:00 +27°C° 0.1 mm 2 mps 736 mmHg 89%
    22:00 +27°C° 2 mm 3 mps 737 mmHg 90%
    23:00 +27°C° 2 mm 4 mps 737 mmHg 90%

    24 September, Tuesday

    Time Temperature Precipitation Wind Pressure Humidity
    00:00 +26°C° 2 mm 5 mps 737 mmHg 91%
    01:00 +25°C° 1.4 mm 5 mps 737 mmHg 92%
    02:00 +23°C° 1.4 mm 4 mps 737 mmHg 93%
    03:00 +22°C° 1.4 mm 3 mps 737 mmHg 94%
    04:00 +22°C° 0.1 mm 3 mps 737 mmHg 94%
    05:00 +23°C° 0.1 mm 2 mps 737 mmHg 94%
    06:00 +23°C° 0.1 mm 2 mps 736 mmHg 93%
    07:00 +24°C° 0 mm 2 mps 737 mmHg 90%
    08:00 +26°C° 0 mm 1 mps 737 mmHg 86%
    09:00 +27°C° 0 mm 1 mps 737 mmHg 83%
    10:00 +28°C° 0 mm 1 mps 737 mmHg 77%
    11:00 +30°C° 0 mm 1 mps 737 mmHg 71%
    12:00 +31°C° 0 mm 1 mps 736 mmHg 65%
    13:00 +32°C° 0 mm 1 mps 736 mmHg 63%
    14:00 +32°C° 0 mm 1 mps 735 mmHg 61%
    15:00 +33°C° 0 mm 1 mps 735 mmHg 59%
    16:00 +31°C° 0 mm 1 mps 735 mmHg 65%
    17:00 +30°C° 0 mm 1 mps 735 mmHg 71%
    18:00 +29°C° 0 mm 1 mps 736 mmHg 77%
    19:00 +28°C° 0.1 mm 1 mps 736 mmHg 78%
    20:00 +27°C° 0.1 mm 1 mps 736 mmHg 80%
    21:00 +27°C° 0.1 mm 1 mps 737 mmHg 82%
    22:00 +26°C° 0.2 mm 1 mps 737 mmHg 84%
    23:00 +26°C° 0.2 mm 2 mps 737 mmHg 86%
    Show more